Location: Unspecified
(48.1170°N, 0.0000°E)
Time: 23:24:39
(UTC+00:00)

JY1SAT - Pass Details

Date: 17 September 2019
Orbit: 572 x 591 km, 97.7° (Epoch: 17 October)

Event Time Altitude Azimuth Distance (km) Brightness Sun altitude
Exits shadow 20:35:06 14° 34° (NE) 1,619 ? -23.7°
Drops below altitude 10° 20:36:14 10° 20° (NNE) 1,893 ? -23.9°
Sets 20:38:57 0° 1° (N) 2,800 ? -24.3°
